DCSAG TXKF-CYYT

Flight info

Callsign DCSAG
Flight time 2h 41m
Altitude 45000
Route SOMRR1 BALOO DCT 40N060W DCT JEBBY DCT LOMPI/N0437F450
Aircraft E55P/M-SBDFGHJ2RWY/LB2

Departure

Time 2026-04-23 16:43
Airport L.F. Wade International Airport (TXKF)

Arrival

Time 2026-04-23 19:24
Airport St. John's International Airport (CYYT)
Time Latitude Longitude Altitude Speed Heading
2026-04-23 16:32 32.36747 -64.68322 17 ft 0 kts 13°
2026-04-23 16:37 32.36748 -64.68322 17 ft 0 kts 13°
2026-04-23 16:37 32.36755 -64.68316 17 ft 3 kts 62°
2026-04-23 16:38 32.36739 -64.68297 17 ft 5 kts 178°
2026-04-23 16:38 32.36701 -64.68277 17 ft 8 kts 107°
2026-04-23 16:38 32.36688 -64.68226 17 ft 7 kts 124°
2026-04-23 16:38 32.36669 -64.68262 17 ft 8 kts 275°
2026-04-23 16:39 32.36629 -64.68267 17 ft 9 kts 102°
2026-04-23 16:39 32.36617 -64.68178 17 ft 13 kts 101°
2026-04-23 16:39 32.36600 -64.68063 17 ft 16 kts 99°
2026-04-23 16:39 32.36577 -64.67921 17 ft 19 kts 102°
2026-04-23 16:40 32.36552 -64.67754 17 ft 22 kts 102°
2026-04-23 16:40 32.36520 -64.67562 17 ft 25 kts 102°
2026-04-23 16:40 32.36487 -64.67350 17 ft 28 kts 103°
2026-04-23 16:40 32.36452 -64.67121 17 ft 28 kts 104°
2026-04-23 16:41 32.36412 -64.66905 17 ft 26 kts 99°
2026-04-23 16:41 32.36377 -64.66702 17 ft 24 kts 104°
2026-04-23 16:41 32.36342 -64.66515 17 ft 22 kts 103°
2026-04-23 16:41 32.36313 -64.66407 17 ft 11 kts 134°
2026-04-23 16:42 32.36250 -64.66375 17 ft 9 kts 165°
2026-04-23 16:42 32.36192 -64.66377 17 ft 7 kts 188°
2026-04-23 16:42 32.36152 -64.66396 17 ft 5 kts 244°
2026-04-23 16:42 32.36156 -64.66430 17 ft 3 kts 285°
2026-04-23 16:43 32.36168 -64.66502 17 ft 24 kts 280°
2026-04-23 16:43 32.36260 -64.67054 17 ft 111 kts 280°
2026-04-23 16:43 32.36471 -64.68098 688 ft 132 kts 286°
2026-04-23 16:43 32.36754 -64.69068 2025 ft 119 kts 289°
2026-04-23 16:44 32.36972 -64.70123 2776 ft 152 kts 275°
2026-04-23 16:44 32.37114 -64.71436 3700 ft 174 kts 276°
2026-04-23 16:44 32.37306 -64.72903 4831 ft 179 kts 279°
2026-04-23 16:44 32.37532 -64.74360 6084 ft 186 kts 281°
2026-04-23 16:45 32.37806 -64.76000 6779 ft 219 kts 281°
2026-04-23 16:45 32.38150 -64.77869 7550 ft 245 kts 285°
2026-04-23 16:45 32.39060 -64.79690 8278 ft 264 kts 320°
2026-04-23 16:45 32.40737 -64.80600 9371 ft 283 kts 345°
2026-04-23 16:46 32.42737 -64.80622 10438 ft 288 kts
2026-04-23 16:46 32.44802 -64.80200 10796 ft 321 kts
2026-04-23 16:46 32.47027 -64.79537 11489 ft 330 kts 11°
2026-04-23 16:46 32.49241 -64.78819 12479 ft 330 kts
2026-04-23 16:47 32.51442 -64.77968 13301 ft 339 kts 21°
2026-04-23 16:47 32.53445 -64.76507 14090 ft 347 kts 32°
2026-04-23 16:47 32.55324 -64.74618 14855 ft 353 kts 39°
2026-04-23 16:47 32.57062 -64.72529 15581 ft 358 kts 43°
2026-04-23 16:48 32.58719 -64.70333 16271 ft 362 kts 44°
2026-04-23 16:48 32.60356 -64.68046 16930 ft 366 kts 45°
2026-04-23 16:48 32.61985 -64.65712 17572 ft 369 kts 46°
2026-04-23 16:48 32.63625 -64.63347 18194 ft 372 kts 46°
2026-04-23 16:49 32.64716 -64.61774 18580 ft 374 kts 46°
2026-04-23 16:49 32.66947 -64.58557 19324 ft 378 kts 45°
2026-04-23 16:49 32.68633 -64.56136 19853 ft 381 kts 45°
2026-04-23 16:49 32.70344 -64.53705 20357 ft 384 kts 45°
2026-04-23 16:50 32.72090 -64.51284 20865 ft 387 kts 44°
2026-04-23 16:50 32.73854 -64.48854 21334 ft 390 kts 44°
2026-04-23 16:50 32.75634 -64.46414 21800 ft 392 kts 44°
2026-04-23 16:50 32.77428 -64.43953 22258 ft 395 kts 44°
2026-04-23 16:51 32.79241 -64.41470 22666 ft 398 kts 44°
2026-04-23 16:51 32.81059 -64.38982 23083 ft 400 kts 44°
2026-04-23 16:51 32.82891 -64.36472 23481 ft 403 kts 44°
2026-04-23 16:51 32.84708 -64.33979 23858 ft 405 kts 44°
2026-04-23 16:52 32.86563 -64.31436 24228 ft 407 kts 44°
2026-04-23 16:52 32.88426 -64.28888 24578 ft 409 kts 44°
2026-04-23 16:52 32.90297 -64.26322 24909 ft 412 kts 44°
2026-04-23 16:52 32.92181 -64.23734 25240 ft 414 kts 44°
2026-04-23 16:53 32.94064 -64.21139 25556 ft 416 kts 44°
2026-04-23 16:53 32.95965 -64.18518 25861 ft 418 kts 44°
2026-04-23 16:53 32.97868 -64.15894 26157 ft 420 kts 44°
2026-04-23 16:53 32.99783 -64.13250 26443 ft 422 kts 44°
2026-04-23 16:54 33.01709 -64.10594 26723 ft 424 kts 44°
2026-04-23 16:54 33.03640 -64.07932 26986 ft 426 kts 44°
2026-04-23 16:54 33.05588 -64.05246 27257 ft 428 kts 44°
2026-04-23 16:54 33.07541 -64.02551 27507 ft 430 kts 44°
2026-04-23 16:55 33.09503 -63.99840 27753 ft 432 kts 44°
2026-04-23 16:55 33.11450 -63.97149 27918 ft 435 kts 44°
2026-04-23 16:55 33.13432 -63.94408 28153 ft 437 kts 44°
2026-04-23 16:55 33.15421 -63.91653 28382 ft 439 kts 44°
2026-04-23 16:56 33.17421 -63.88880 28597 ft 440 kts 44°
2026-04-23 16:56 33.19427 -63.86095 28808 ft 442 kts 44°
2026-04-23 16:56 33.20761 -63.84242 28936 ft 443 kts 44°
2026-04-23 16:56 33.23455 -63.80496 29212 ft 445 kts 44°
2026-04-23 16:57 33.25453 -63.77716 29396 ft 447 kts 44°
2026-04-23 16:57 33.27507 -63.74855 29591 ft 448 kts 44°
2026-04-23 16:57 33.29541 -63.72019 29786 ft 450 kts 44°
2026-04-23 16:57 33.31580 -63.69174 29966 ft 451 kts 45°
2026-04-23 16:58 33.33625 -63.66319 30139 ft 453 kts 45°
2026-04-23 16:58 33.35661 -63.63470 30711 ft 443 kts 44°
2026-04-23 16:58 33.37653 -63.60672 31036 ft 442 kts 44°
2026-04-23 16:58 33.39656 -63.57864 31194 ft 444 kts 44°
2026-04-23 16:59 33.41645 -63.55076 31396 ft 445 kts 44°
2026-04-23 16:59 33.43664 -63.52246 31582 ft 447 kts 44°
2026-04-23 16:59 33.45684 -63.49413 31762 ft 448 kts 44°
2026-04-23 16:59 33.47709 -63.46571 31950 ft 449 kts 44°
2026-04-23 17:00 33.49737 -63.43723 32110 ft 450 kts 44°
2026-04-23 17:00 33.51776 -63.40857 32267 ft 452 kts 44°
2026-04-23 17:00 33.53129 -63.38954 32378 ft 452 kts 44°
2026-04-23 17:00 33.55175 -63.36074 32562 ft 453 kts 44°
2026-04-23 17:01 33.57220 -63.33192 32727 ft 454 kts 44°
2026-04-23 17:01 33.59268 -63.30302 32872 ft 456 kts 44°
2026-04-23 17:01 33.61327 -63.27396 33013 ft 457 kts 44°
2026-04-23 17:01 33.63389 -63.24484 33158 ft 458 kts 44°
2026-04-23 17:02 33.65455 -63.21564 33298 ft 459 kts 44°
2026-04-23 17:02 33.67528 -63.18631 33429 ft 460 kts 44°
2026-04-23 17:02 33.69601 -63.15696 33556 ft 461 kts 44°
2026-04-23 17:02 33.71638 -63.12799 34230 ft 448 kts 44°
2026-04-23 17:03 33.75665 -63.07074 34447 ft 453 kts 44°
2026-04-23 17:03 33.77702 -63.04180 34569 ft 454 kts 44°
2026-04-23 17:03 33.79772 -63.01240 34713 ft 455 kts 44°
2026-04-23 17:04 33.81793 -62.98366 34840 ft 457 kts 44°
2026-04-23 17:04 33.83856 -62.95430 34944 ft 459 kts 44°
2026-04-23 17:04 33.85919 -62.92492 35072 ft 460 kts 44°
2026-04-23 17:04 33.87990 -62.89541 35199 ft 461 kts 44°
2026-04-23 17:05 33.92142 -62.83613 35410 ft 464 kts 44°
2026-04-23 17:05 33.94208 -62.80656 35893 ft 454 kts 44°
2026-04-23 17:05 33.96232 -62.77746 36149 ft 453 kts 44°
2026-04-23 17:06 34.00306 -62.71904 36363 ft 457 kts 44°
2026-04-23 17:06 34.02354 -62.68967 36501 ft 458 kts 44°
2026-04-23 17:06 34.04387 -62.66050 36623 ft 459 kts 44°
2026-04-23 17:07 34.06445 -62.63094 36735 ft 460 kts 44°
2026-04-23 17:07 34.08505 -62.60133 36855 ft 461 kts 44°
2026-04-23 17:07 34.10571 -62.57161 36969 ft 463 kts 44°
2026-04-23 17:07 34.12645 -62.54174 37083 ft 464 kts 44°
2026-04-23 17:08 34.16799 -62.48183 37289 ft 466 kts 44°
2026-04-23 17:08 34.18891 -62.45161 37398 ft 467 kts 44°
2026-04-23 17:08 34.20979 -62.42142 37479 ft 469 kts 44°
2026-04-23 17:09 34.25124 -62.36134 38056 ft 459 kts 44°
2026-04-23 17:09 34.27152 -62.33180 38322 ft 458 kts 44°
2026-04-23 17:09 34.29194 -62.30211 38400 ft 460 kts 44°
2026-04-23 17:10 34.31244 -62.27234 38517 ft 460 kts 44°
2026-04-23 17:10 34.33298 -62.24248 38639 ft 461 kts 44°
2026-04-23 17:10 34.37412 -62.18261 38832 ft 464 kts 44°
2026-04-23 17:11 34.39638 -62.15466 38929 ft 455 kts 31°
2026-04-23 17:11 34.42239 -62.13396 39042 ft 444 kts 20°
2026-04-23 17:11 34.47875 -62.10521 39242 ft 436 kts 10°
2026-04-23 17:12 34.53631 -62.08380 39435 ft 434 kts
2026-04-23 17:12 34.59471 -62.06425 39588 ft 436 kts
2026-04-23 17:13 34.65345 -62.04485 39758 ft 438 kts
2026-04-23 17:13 34.71229 -62.02515 39921 ft 440 kts
2026-04-23 17:14 34.77135 -62.00500 40098 ft 441 kts
2026-04-23 17:14 34.80040 -61.99489 40693 ft 428 kts
2026-04-23 17:14 34.82915 -61.98484 40729 ft 431 kts
2026-04-23 17:15 34.88708 -61.96458 40885 ft 434 kts
2026-04-23 17:15 34.91613 -61.95436 40986 ft 435 kts
2026-04-23 17:15 34.94513 -61.94413 41104 ft 435 kts
2026-04-23 17:16 35.00338 -61.92347 41276 ft 437 kts
2026-04-23 17:16 35.06194 -61.90260 41420 ft 439 kts
2026-04-23 17:17 35.12064 -61.88159 41588 ft 440 kts
2026-04-23 17:17 35.17922 -61.86054 41740 ft 442 kts
2026-04-23 17:18 35.23837 -61.83922 41888 ft 443 kts
2026-04-23 17:18 35.26807 -61.82850 41956 ft 444 kts
2026-04-23 17:19 35.32738 -61.80702 42345 ft 437 kts
2026-04-23 17:19 35.35572 -61.79665 42815 ft 429 kts 10°
2026-04-23 17:19 35.38478 -61.78605 42848 ft 431 kts
2026-04-23 17:20 35.44200 -61.76527 43001 ft 432 kts
2026-04-23 17:20 35.49977 -61.74429 43173 ft 433 kts 10°
2026-04-23 17:21 35.55801 -61.72312 43317 ft 434 kts 10°
2026-04-23 17:21 35.64518 -61.69136 43526 ft 436 kts 10°
2026-04-23 17:22 35.73228 -61.65951 43745 ft 438 kts 10°
2026-04-23 17:23 35.79071 -61.63810 43886 ft 438 kts 10°
2026-04-23 17:23 35.82005 -61.62734 43944 ft 439 kts 10°
2026-04-23 17:23 35.87864 -61.60582 44072 ft 439 kts 10°
2026-04-23 17:24 35.90742 -61.59516 44578 ft 428 kts 10°
2026-04-23 17:24 35.93597 -61.58459 44721 ft 426 kts 10°
2026-04-23 17:24 35.99259 -61.56365 45000 ft 423 kts 10°
2026-04-23 17:25 36.07707 -61.53250 45039 ft 425 kts 10°
2026-04-23 17:26 36.19050 -61.49059 45036 ft 426 kts 10°
2026-04-23 17:27 36.27588 -61.45893 45033 ft 428 kts 11°
2026-04-23 17:27 36.33313 -61.43766 45031 ft 428 kts 11°
2026-04-23 17:28 36.39027 -61.41638 45029 ft 429 kts 11°
2026-04-23 17:28 36.44757 -61.39502 45028 ft 430 kts 11°
2026-04-23 17:29 36.50492 -61.37360 45026 ft 431 kts 11°
2026-04-23 17:30 36.58149 -61.34494 45023 ft 431 kts 11°
2026-04-23 17:30 36.67718 -61.30905 45020 ft 432 kts 11°
2026-04-23 17:31 36.73496 -61.28732 45018 ft 433 kts 11°
2026-04-23 17:31 36.79275 -61.26557 45016 ft 434 kts 11°
2026-04-23 17:32 36.85067 -61.24372 45015 ft 434 kts 11°
2026-04-23 17:32 36.90822 -61.22199 45013 ft 435 kts 11°
2026-04-23 17:33 36.96615 -61.20007 45011 ft 435 kts 11°
2026-04-23 17:33 37.02438 -61.17801 45009 ft 436 kts 11°
2026-04-23 17:34 37.08252 -61.15594 45007 ft 436 kts 11°
2026-04-23 17:35 37.16976 -61.12276 45004 ft 437 kts 11°
2026-04-23 17:35 37.25710 -61.08947 45002 ft 437 kts 11°
2026-04-23 17:36 37.31504 -61.06734 45000 ft 438 kts 11°
2026-04-23 17:36 37.37335 -61.04503 44998 ft 438 kts 11°
2026-04-23 17:37 37.43174 -61.02265 44996 ft 438 kts 11°
2026-04-23 17:38 37.51932 -60.98902 44993 ft 439 kts 11°
2026-04-23 17:38 37.57775 -60.96653 44991 ft 439 kts 11°
2026-04-23 17:39 37.63620 -60.94400 44989 ft 439 kts 11°
2026-04-23 17:39 37.69426 -60.92158 44987 ft 439 kts 11°
2026-04-23 17:40 37.74322 -60.90265 44985 ft 439 kts 11°
2026-04-23 17:40 37.80136 -60.88014 44984 ft 439 kts 11°
2026-04-23 17:41 37.85990 -60.85743 44982 ft 439 kts 11°
2026-04-23 17:41 37.94763 -60.82334 44980 ft 439 kts 12°
2026-04-23 17:42 38.03502 -60.78929 44977 ft 439 kts 12°
2026-04-23 17:43 38.09348 -60.76647 44976 ft 439 kts 12°
2026-04-23 17:43 38.15192 -60.74361 44974 ft 439 kts 12°
2026-04-23 17:44 38.21040 -60.72069 44972 ft 439 kts 12°
2026-04-23 17:44 38.29811 -60.68626 44970 ft 439 kts 12°
2026-04-23 17:45 38.38572 -60.65177 44968 ft 439 kts 12°
2026-04-23 17:46 38.47302 -60.61733 44966 ft 439 kts 12°
2026-04-23 17:46 38.53143 -60.59423 44964 ft 439 kts 12°
2026-04-23 17:47 38.58984 -60.57109 44963 ft 439 kts 12°
2026-04-23 17:48 38.67768 -60.53622 44961 ft 439 kts 12°
2026-04-23 17:48 38.73613 -60.51297 44960 ft 439 kts 12°
2026-04-23 17:49 38.79452 -60.48971 44958 ft 440 kts 12°
2026-04-23 17:49 38.85261 -60.46652 44957 ft 440 kts 12°
2026-04-23 17:50 38.91107 -60.44314 44956 ft 440 kts 12°
2026-04-23 17:50 38.99885 -60.40797 44954 ft 440 kts 12°
2026-04-23 17:51 39.05736 -60.38448 44953 ft 440 kts 12°
2026-04-23 17:52 39.14480 -60.34929 44951 ft 440 kts 12°
2026-04-23 17:52 39.23254 -60.31388 44947 ft 440 kts 13°
2026-04-23 17:53 39.32038 -60.27834 44944 ft 441 kts 13°
2026-04-23 17:54 39.37888 -60.25462 44943 ft 441 kts 13°
2026-04-23 17:54 39.46644 -60.21903 44942 ft 441 kts 13°
2026-04-23 17:55 39.55446 -60.18317 44940 ft 441 kts 13°
2026-04-23 17:56 39.61306 -60.15923 44939 ft 442 kts 13°
2026-04-23 17:56 39.70106 -60.12321 44938 ft 442 kts 13°
2026-04-23 17:57 39.75985 -60.09909 44937 ft 442 kts 13°
2026-04-23 17:58 39.84754 -60.06303 44935 ft 442 kts 13°
2026-04-23 17:58 39.90627 -60.03882 44935 ft 442 kts 13°
2026-04-23 17:59 39.96492 -60.01442 44934 ft 443 kts 14°
2026-04-23 17:59 40.02240 -59.98410 44937 ft 446 kts 20°
2026-04-23 18:00 40.07869 -59.94926 44936 ft 448 kts 22°
2026-04-23 18:00 40.13419 -59.91306 44935 ft 448 kts 22°
2026-04-23 18:01 40.18983 -59.87614 44934 ft 448 kts 22°
2026-04-23 18:01 40.24551 -59.83899 44933 ft 449 kts 23°
2026-04-23 18:02 40.30111 -59.80185 44932 ft 449 kts 23°
2026-04-23 18:02 40.35681 -59.76462 44931 ft 449 kts 23°
2026-04-23 18:03 40.41213 -59.72763 44931 ft 449 kts 23°
2026-04-23 18:03 40.46785 -59.69034 44930 ft 449 kts 23°
2026-04-23 18:04 40.52352 -59.65304 44929 ft 449 kts 23°
2026-04-23 18:04 40.57931 -59.61561 44928 ft 449 kts 23°
2026-04-23 18:05 40.63508 -59.57814 44928 ft 450 kts 23°
2026-04-23 18:05 40.69091 -59.54057 44927 ft 450 kts 23°
2026-04-23 18:06 40.74668 -59.50297 44926 ft 450 kts 24°
2026-04-23 18:06 40.80242 -59.46533 44925 ft 450 kts 24°
2026-04-23 18:07 40.85824 -59.42756 44925 ft 451 kts 24°
2026-04-23 18:07 40.91408 -59.38971 44923 ft 451 kts 24°
2026-04-23 18:08 40.96050 -59.35819 44919 ft 451 kts 24°
2026-04-23 18:08 41.02542 -59.31402 44918 ft 451 kts 24°
2026-04-23 18:09 41.08127 -59.27594 44917 ft 451 kts 24°
2026-04-23 18:09 41.13716 -59.23777 44917 ft 452 kts 24°
2026-04-23 18:10 41.19302 -59.19954 44916 ft 452 kts 24°
2026-04-23 18:10 41.24896 -59.16119 44916 ft 452 kts 24°
2026-04-23 18:11 41.30476 -59.12285 44915 ft 452 kts 24°
2026-04-23 18:11 41.36064 -59.08438 44915 ft 452 kts 24°
2026-04-23 18:12 41.41650 -59.04586 44915 ft 452 kts 24°
2026-04-23 18:12 41.47240 -59.00723 44914 ft 452 kts 24°
2026-04-23 18:13 41.52824 -58.96857 44914 ft 452 kts 24°
2026-04-23 18:13 41.58405 -58.92986 44914 ft 452 kts 25°
2026-04-23 18:14 41.63959 -58.89125 44913 ft 452 kts 25°
2026-04-23 18:14 41.69543 -58.85236 44913 ft 452 kts 25°
2026-04-23 18:15 41.75123 -58.81343 44913 ft 452 kts 25°
2026-04-23 18:15 41.80704 -58.77440 44912 ft 452 kts 25°
2026-04-23 18:16 41.86289 -58.73527 44912 ft 452 kts 25°
2026-04-23 18:16 41.91866 -58.69612 44912 ft 452 kts 25°
2026-04-23 18:17 42.00238 -58.63721 44912 ft 453 kts 25°
2026-04-23 18:17 42.05811 -58.59789 44911 ft 453 kts 25°
2026-04-23 18:18 42.11430 -58.55817 44911 ft 453 kts 25°
2026-04-23 18:18 42.16981 -58.51885 44911 ft 453 kts 25°
2026-04-23 18:19 42.22561 -58.47925 44907 ft 453 kts 25°
2026-04-23 18:19 42.27199 -58.44626 44906 ft 453 kts 25°
2026-04-23 18:20 42.32772 -58.40656 44905 ft 453 kts 26°
2026-04-23 18:20 42.38344 -58.36679 44905 ft 453 kts 26°
2026-04-23 18:21 42.43913 -58.32694 44905 ft 453 kts 26°
2026-04-23 18:21 42.49485 -58.28701 44905 ft 453 kts 26°
2026-04-23 18:22 42.55068 -58.24691 44904 ft 453 kts 26°
2026-04-23 18:22 42.60606 -58.20706 44900 ft 453 kts 26°
2026-04-23 18:23 42.68958 -58.14679 44896 ft 453 kts 26°
2026-04-23 18:24 42.77319 -58.08627 44896 ft 453 kts 26°
2026-04-23 18:25 42.85633 -58.02590 44895 ft 453 kts 26°
2026-04-23 18:25 42.91197 -57.98539 44895 ft 453 kts 26°
2026-04-23 18:26 42.96755 -57.94482 44895 ft 453 kts 26°
2026-04-23 18:26 43.02321 -57.90410 44895 ft 453 kts 27°
2026-04-23 18:27 43.07791 -57.86125 44895 ft 454 kts 30°
2026-04-23 18:27 43.13119 -57.81471 44894 ft 454 kts 32°
2026-04-23 18:28 43.18355 -57.76704 44894 ft 454 kts 33°
2026-04-23 18:28 43.23593 -57.71860 44894 ft 454 kts 33°
2026-04-23 18:29 43.28822 -57.66999 44893 ft 454 kts 33°
2026-04-23 18:29 43.34057 -57.62122 44893 ft 454 kts 33°
2026-04-23 18:30 43.39264 -57.57267 44893 ft 454 kts 33°
2026-04-23 18:30 43.44493 -57.52386 44892 ft 454 kts 33°
2026-04-23 18:31 43.49722 -57.47499 44892 ft 454 kts 33°
2026-04-23 18:31 43.54952 -57.42604 44891 ft 454 kts 33°
2026-04-23 18:32 43.60181 -57.37700 44890 ft 454 kts 33°
2026-04-23 18:32 43.65413 -57.32785 44890 ft 454 kts 33°
2026-04-23 18:33 43.70636 -57.27867 44889 ft 454 kts 33°
2026-04-23 18:33 43.75854 -57.22944 44888 ft 454 kts 33°
2026-04-23 18:34 43.81069 -57.18013 44888 ft 454 kts 33°
2026-04-23 18:34 43.86264 -57.13089 44887 ft 454 kts 33°
2026-04-23 18:35 43.91517 -57.08099 44886 ft 454 kts 33°
2026-04-23 18:35 43.96692 -57.03166 44884 ft 454 kts 34°
2026-04-23 18:36 44.01749 -56.97891 44872 ft 455 kts 38°
2026-04-23 18:36 44.06670 -56.92339 44869 ft 455 kts 39°
2026-04-23 18:37 44.11528 -56.86697 44868 ft 454 kts 40°
2026-04-23 18:37 44.16365 -56.81019 44866 ft 454 kts 40°
2026-04-23 18:38 44.21200 -56.75320 44862 ft 454 kts 40°
2026-04-23 18:38 44.26025 -56.69620 44861 ft 454 kts 40°
2026-04-23 18:39 44.30821 -56.63945 44861 ft 454 kts 40°
2026-04-23 18:39 44.35645 -56.58229 44860 ft 454 kts 40°
2026-04-23 18:40 44.40499 -56.52468 44859 ft 454 kts 40°
2026-04-23 18:40 44.45286 -56.46776 44859 ft 454 kts 40°
2026-04-23 18:41 44.50096 -56.41046 44858 ft 454 kts 40°
2026-04-23 18:41 44.54914 -56.35294 44858 ft 454 kts 40°
2026-04-23 18:42 44.59730 -56.29532 44857 ft 454 kts 40°
2026-04-23 18:42 44.64542 -56.23764 44857 ft 454 kts 40°
2026-04-23 18:43 44.69321 -56.18022 44856 ft 454 kts 40°
2026-04-23 18:43 44.74121 -56.12241 44856 ft 454 kts 40°
2026-04-23 18:44 44.78920 -56.06450 44855 ft 454 kts 41°
2026-04-23 18:44 44.83709 -56.00657 44854 ft 454 kts 41°
2026-04-23 18:45 44.88496 -55.94854 44854 ft 454 kts 41°
2026-04-23 18:45 44.93279 -55.89042 44853 ft 454 kts 41°
2026-04-23 18:46 44.98056 -55.83224 44852 ft 453 kts 41°
2026-04-23 18:46 45.02834 -55.77392 44852 ft 453 kts 41°
2026-04-23 18:47 45.07603 -55.71557 44851 ft 453 kts 41°
2026-04-23 18:47 45.12371 -55.65711 44851 ft 453 kts 41°
2026-04-23 18:48 45.17133 -55.59857 44850 ft 453 kts 41°
2026-04-23 18:48 45.21889 -55.53999 44850 ft 453 kts 41°
2026-04-23 18:49 45.26606 -55.48175 44849 ft 452 kts 41°
2026-04-23 18:49 45.31379 -55.42267 44849 ft 452 kts 42°
2026-04-23 18:50 45.35314 -55.37387 44848 ft 452 kts 42°
2026-04-23 18:50 45.40849 -55.30506 44848 ft 452 kts 42°
2026-04-23 18:51 45.45574 -55.24618 44847 ft 452 kts 42°
2026-04-23 18:51 45.50301 -55.18713 44847 ft 451 kts 42°
2026-04-23 18:52 45.54996 -55.12835 44846 ft 451 kts 42°
2026-04-23 18:52 45.59711 -55.06918 44846 ft 451 kts 42°
2026-04-23 18:53 45.64423 -55.00991 44846 ft 451 kts 42°
2026-04-23 18:53 45.69133 -54.95053 44845 ft 451 kts 42°
2026-04-23 18:54 45.73831 -54.89116 44833 ft 451 kts 42°
2026-04-23 18:54 45.76186 -54.86134 44343 ft 452 kts 42°
2026-04-23 18:54 45.78539 -54.83152 43882 ft 451 kts 42°
2026-04-23 18:54 45.80886 -54.80175 43430 ft 449 kts 42°
2026-04-23 18:55 45.83230 -54.77197 42978 ft 448 kts 43°
2026-04-23 18:55 45.85561 -54.74233 42528 ft 447 kts 43°
2026-04-23 18:55 45.87881 -54.71279 42078 ft 446 kts 43°
2026-04-23 18:55 45.90200 -54.68322 41627 ft 444 kts 43°
2026-04-23 18:56 45.91728 -54.66372 41329 ft 443 kts 43°
2026-04-23 18:56 45.94807 -54.62439 40726 ft 442 kts 43°
2026-04-23 18:56 45.97100 -54.59506 40276 ft 440 kts 43°
2026-04-23 18:56 45.99383 -54.56581 39826 ft 439 kts 43°
2026-04-23 18:57 46.01658 -54.53664 39376 ft 437 kts 43°
2026-04-23 18:57 46.03928 -54.50751 38926 ft 436 kts 43°
2026-04-23 18:57 46.05429 -54.48822 38627 ft 435 kts 43°
2026-04-23 18:57 46.08440 -54.44950 38024 ft 432 kts 43°
2026-04-23 18:58 46.10653 -54.42099 37579 ft 430 kts 44°
2026-04-23 18:58 46.12157 -54.40160 37275 ft 429 kts 44°
2026-04-23 18:58 46.14376 -54.37297 36824 ft 427 kts 44°
2026-04-23 18:58 46.16582 -54.34447 36374 ft 425 kts 44°
2026-04-23 18:59 46.18780 -54.31604 35923 ft 423 kts 44°
2026-04-23 18:59 46.20962 -54.28779 35474 ft 421 kts 44°
2026-04-23 18:59 46.23135 -54.25962 35023 ft 418 kts 44°
2026-04-23 18:59 46.25295 -54.23159 34573 ft 416 kts 44°
2026-04-23 19:00 46.27446 -54.20364 34122 ft 414 kts 45°
2026-04-23 19:00 46.29586 -54.17581 33672 ft 412 kts 45°
2026-04-23 19:00 46.31711 -54.14814 33222 ft 410 kts 44°
2026-04-23 19:00 46.33798 -54.12092 32778 ft 409 kts 45°
2026-04-23 19:01 46.35903 -54.09345 32328 ft 407 kts 44°
2026-04-23 19:01 46.38001 -54.06602 31879 ft 405 kts 44°
2026-04-23 19:01 46.40102 -54.03871 31424 ft 404 kts 44°
2026-04-23 19:01 46.42205 -54.01162 30972 ft 403 kts 44°
2026-04-23 19:02 46.44288 -53.98466 30537 ft 401 kts 44°
2026-04-23 19:02 46.46354 -53.95748 30093 ft 400 kts 45°
2026-04-23 19:02 46.48409 -53.93036 29653 ft 398 kts 45°
2026-04-23 19:02 46.50446 -53.90322 29226 ft 397 kts 44°
2026-04-23 19:03 46.52478 -53.87601 28799 ft 397 kts 45°
2026-04-23 19:03 46.54513 -53.84886 28364 ft 396 kts 44°
2026-04-23 19:03 46.56547 -53.82183 27921 ft 396 kts 44°
2026-04-23 19:03 46.58562 -53.79468 27512 ft 395 kts 44°
2026-04-23 19:04 46.60597 -53.76756 27067 ft 396 kts 43°
2026-04-23 19:04 46.62641 -53.74071 26615 ft 396 kts 43°
2026-04-23 19:04 46.64689 -53.71373 26165 ft 397 kts 43°
2026-04-23 19:04 46.66733 -53.68678 25722 ft 397 kts 43°
2026-04-23 19:05 46.68781 -53.65972 25272 ft 397 kts 43°
2026-04-23 19:05 46.70802 -53.63297 24828 ft 398 kts 43°
2026-04-23 19:05 46.72851 -53.60582 24377 ft 398 kts 43°
2026-04-23 19:05 46.74897 -53.57865 23928 ft 398 kts 43°
2026-04-23 19:06 46.76944 -53.55143 23478 ft 398 kts 43°
2026-04-23 19:06 46.78995 -53.52410 23026 ft 398 kts 43°
2026-04-23 19:06 46.81036 -53.49686 22577 ft 398 kts 43°
2026-04-23 19:06 46.83081 -53.46956 22125 ft 397 kts 43°
2026-04-23 19:07 46.85125 -53.44222 21673 ft 397 kts 43°
2026-04-23 19:07 46.87155 -53.41504 21224 ft 396 kts 43°
2026-04-23 19:07 46.89186 -53.38780 20773 ft 395 kts 43°
2026-04-23 19:07 46.91208 -53.36066 20323 ft 395 kts 43°
2026-04-23 19:08 46.93225 -53.33355 19873 ft 392 kts 43°
2026-04-23 19:08 46.95215 -53.30678 19422 ft 384 kts 43°
2026-04-23 19:08 46.97163 -53.28053 18971 ft 378 kts 43°
2026-04-23 19:08 46.99086 -53.25460 18520 ft 373 kts 43°
2026-04-23 19:09 47.00985 -53.22895 18069 ft 370 kts 43°
2026-04-23 19:09 47.02875 -53.20340 17618 ft 368 kts 43°
2026-04-23 19:09 47.04752 -53.17800 17167 ft 366 kts 43°
2026-04-23 19:09 47.06592 -53.15308 16723 ft 364 kts 43°
2026-04-23 19:10 47.08473 -53.12756 16267 ft 363 kts 43°
2026-04-23 19:10 47.10331 -53.10234 15815 ft 362 kts 43°
2026-04-23 19:10 47.12172 -53.07733 15365 ft 361 kts 43°
2026-04-23 19:10 47.14010 -53.05228 14915 ft 360 kts 43°
2026-04-23 19:11 47.15817 -53.02763 14470 ft 356 kts 43°
2026-04-23 19:11 47.17592 -53.00347 14020 ft 341 kts 43°
2026-04-23 19:11 47.19307 -52.98015 13567 ft 330 kts 43°
2026-04-23 19:11 47.20967 -52.95745 13116 ft 322 kts 43°
2026-04-23 19:12 47.22068 -52.94236 12811 ft 319 kts 43°
2026-04-23 19:12 47.24203 -52.91312 12214 ft 313 kts 43°
2026-04-23 19:12 47.25779 -52.89145 11760 ft 305 kts 43°
2026-04-23 19:12 47.27302 -52.87051 11307 ft 293 kts 43°
2026-04-23 19:13 47.28770 -52.85035 10854 ft 285 kts 42°
2026-04-23 19:13 47.30203 -52.83069 10407 ft 279 kts 42°
2026-04-23 19:13 47.31616 -52.81132 9963 ft 275 kts 41°
2026-04-23 19:13 47.33011 -52.79226 9513 ft 271 kts 41°
2026-04-23 19:14 47.34388 -52.77345 9065 ft 268 kts 40°
2026-04-23 19:14 47.35752 -52.75477 8611 ft 266 kts 40°
2026-04-23 19:14 47.37097 -52.73626 8162 ft 264 kts 41°
2026-04-23 19:14 47.38436 -52.71777 7712 ft 262 kts 40°
2026-04-23 19:15 47.39763 -52.69941 7261 ft 261 kts 40°
2026-04-23 19:15 47.41084 -52.68113 6809 ft 259 kts 40°
2026-04-23 19:15 47.42397 -52.66297 6360 ft 258 kts 40°
2026-04-23 19:15 47.43702 -52.64491 5910 ft 257 kts 40°
2026-04-23 19:16 47.45010 -52.62682 5458 ft 256 kts 40°
2026-04-23 19:16 47.46298 -52.60898 5007 ft 250 kts 40°
2026-04-23 19:16 47.47551 -52.59161 4556 ft 244 kts 40°
2026-04-23 19:17 47.49977 -52.55794 3660 ft 238 kts 40°
2026-04-23 19:17 47.51177 -52.54130 3235 ft 235 kts 40°
2026-04-23 19:17 47.52324 -52.52534 3130 ft 218 kts 40°
2026-04-23 19:17 47.53398 -52.51035 3035 ft 208 kts 39°
2026-04-23 19:18 47.54492 -52.49657 3000 ft 203 kts 26°
2026-04-23 19:18 47.55768 -52.48918 3005 ft 193 kts
2026-04-23 19:18 47.57073 -52.48650 3001 ft 186 kts 358°
2026-04-23 19:18 47.58352 -52.48625 3000 ft 182 kts 353°
2026-04-23 19:19 47.60839 -52.48865 2998 ft 175 kts 343°
2026-04-23 19:19 47.61828 -52.49735 3007 ft 163 kts 309°
2026-04-23 19:20 47.63146 -52.52393 2997 ft 158 kts 300°
2026-04-23 19:20 47.63529 -52.53843 3009 ft 146 kts 277°
2026-04-23 19:20 47.63530 -52.55287 2939 ft 138 kts 265°
2026-04-23 19:20 47.63406 -52.56687 2785 ft 134 kts 262°
2026-04-23 19:21 47.63288 -52.58022 2580 ft 131 kts 264°
2026-04-23 19:21 47.63135 -52.60624 2178 ft 122 kts 266°
2026-04-23 19:21 47.63081 -52.61847 2001 ft 116 kts 266°
2026-04-23 19:22 47.63032 -52.62983 1850 ft 109 kts 266°
2026-04-23 19:22 47.62983 -52.64097 1707 ft 108 kts 266°
2026-04-23 19:22 47.62875 -52.66354 1458 ft 112 kts 266°
2026-04-23 19:23 47.62815 -52.67523 1299 ft 115 kts 267°
2026-04-23 19:23 47.62748 -52.68712 1180 ft 116 kts 266°
2026-04-23 19:23 47.62700 -52.69903 970 ft 117 kts 269°
2026-04-23 19:24 47.62591 -52.72250 676 ft 115 kts 269°
2026-04-23 19:24 47.62539 -52.73425 566 ft 115 kts 267°
2026-04-23 19:24 47.62445 -52.75298 465 ft 32 kts 264°
2026-04-23 19:25 47.62432 -52.75570 465 ft 9 kts 322°
2026-04-23 19:25 47.62448 -52.75399 465 ft 14 kts 86°
2026-04-23 19:26 47.62464 -52.75040 465 ft 21 kts 85°
2026-04-23 19:26 47.62475 -52.74807 465 ft 24 kts 90°
2026-04-23 19:27 47.62505 -52.74246 465 ft 29 kts 85°
2026-04-23 19:27 47.62465 -52.73842 465 ft 10 kts 149°
2026-04-23 19:28 47.62300 -52.73791 465 ft 7 kts 176°
2026-04-23 19:28 47.62273 -52.73692 465 ft 0 kts 86°